START_TIME,STEP,MOV.,AL01,t_acc.,AL02,t_acc.,E37,t_acc.,H21,t_acc.
1986-01-24 03:00:11.820 ,3,1,0.,24.0,0.,24.0,0.,24.0,0.,24.0
1986-01-24 03:00:35.820 ,3,0,0.,24.0,0.,24.0,0.,24.0,0.,24.0
1986-01-24 03:00:59.820 ,2,1,0.,24.0,0.,24.0,0.,24.0,0.,24.0
1986-01-24 03:01:23.820 ,2,0,0.,24.0,0.,24.0,0.,24.0,0.,24.0
1986-01-24 03:01:47.820 ,1,1,0.,24.0,0.,24.0,0.,24.0,0.,24.0
1986-01-24 03:02:11.820 ,1,0,0.,24.0,0.,24.0,0.,24.0,0.,24.0
1986-01-24 03:02:35.820 ,0,1,0.,24.0,0.,24.0,0.,24.0,0.,24.0
1986-01-24 03:02:59.820 ,0,0,0.,24.0,0.,24.0,0.,24.0,0.,24.0
1986-01-24 03:03:23.820 ,0,1,0.,24.0,0.,24.0,0.,24.0,0.,24.0
1986-01-24 03:03:47.820 ,0,0,0.,24.0,1.,24.0,0.,24.0,0.,24.0
1986-01-24 03:04:11.820 ,1,1,0.,24.0,0.,24.0,0.,24.0,0.,24.0
1986-01-24 03:04:35.820 ,1,0,0.,24.0,0.,24.0,0.,24.0,0.,24.0
1986-01-24 03:04:59.820 ,2,1,0.,24.0,0.,24.0,0.,24.0,0.,24.0
1986-01-24 03:05:23.820 ,2,0,0.,24.0,0.,24.0,0.,24.0,0.,24.0
1986-01-24 03:05:47.820 ,3,1,0.,24.0,0.,24.0,0.,24.0,0.,24.0
1986-01-24 03:06:11.820 ,3,0,0.,24.0,0.,24.0,0.,24.0,0.,24.0
1986-01-24 03:06:35.820 ,4,1,0.,24.0,0.,24.0,0.,24.0,0.,24.0
1986-01-24 03:06:59.820 ,4,0,0.,24.0,0.,24.0,0.,24.0,0.,24.0
1986-01-24 03:07:23.820 ,5,1,0.,24.0,0.,24.0,0.,24.0,0.,24.0
1986-01-24 03:07:47.820 ,5,0,0.,24.0,0.,24.0,0.,24.0,0.,24.0
1986-01-24 03:08:11.820 ,6,1,0.,24.0,0.,24.0,0.,24.0,0.,24.0
1986-01-24 03:08:35.820 ,6,0,0.,24.0,0.,24.0,0.,24.0,0.,24.0
1986-01-24 03:08:59.820 ,7,1,6.,24.0,0.,24.0,0.,24.0,0.,24.0
1986-01-24 03:09:23.820 ,7,0,38.,24.0,0.,24.0,0.,24.0,0.,24.0
1986-01-24 03:09:47.820 ,7,1,29.,24.0,0.,24.0,0.,24.0,0.,24.0
1986-01-24 03:10:11.820 ,7,0,29.,24.0,0.,24.0,0.,24.0,0.,24.0
1986-01-24 03:10:35.820 ,6,1,17.,24.0,0.,24.0,0.,24.0,0.,24.0
1986-01-24 03:10:59.820 ,6,0,0.,24.0,0.,24.0,0.,24.0,0.,24.0
1986-01-24 03:11:47.820 ,5,0,0.,24.0,0.,24.0,0.,24.0,0.,24.0
1986-01-24 03:12:11.820 ,4,1,0.,24.0,0.,24.0,0.,24.0,0.,24.0
1986-01-24 03:12:35.820 ,4,0,0.,24.0,0.,24.0,0.,24.0,0.,24.0
1986-01-24 03:12:59.820 ,3,1,0.,24.0,0.,24.0,0.,24.0,0.,24.0
1986-01-24 03:13:23.820 ,3,0,0.,24.0,0.,24.0,0.,24.0,0.,24.0
1986-01-24 03:13:47.820 ,2,1,0.,24.0,0.,24.0,0.,24.0,0.,24.0
1986-01-24 03:14:11.820 ,2,0,0.,24.0,0.,24.0,0.,24.0,0.,24.0
1986-01-24 03:14:35.820 ,1,1,0.,24.0,0.,24.0,0.,24.0,0.,24.0
1986-01-24 03:14:59.820 ,1,0,0.,24.0,0.,24.0,0.,24.0,0.,24.0
1986-01-24 03:15:23.820 ,0,1,0.,24.0,0.,24.0,0.,24.0,0.,24.0
1986-01-24 03:15:47.820 ,0,0,0.,24.0,0.,24.0,0.,24.0,0.,24.0
1986-01-24 03:16:11.820 ,0,1,0.,24.0,0.,24.0,0.,24.0,0.,24.0
1986-01-24 03:16:35.820 ,0,0,0.,24.0,0.,24.0,0.,24.0,0.,24.0
1986-01-24 03:16:59.820 ,1,1,0.,24.0,0.,24.0,0.,24.0,0.,24.0
1986-01-24 03:17:23.820 ,1,0,0.,24.0,0.,24.0,0.,24.0,0.,24.0
1986-01-24 03:17:47.820 ,2,1,0.,24.0,0.,24.0,0.,24.0,0.,24.0
1986-01-24 03:18:11.820 ,2,0,0.,24.0,0.,24.0,0.,24.0,0.,24.0
1986-01-24 03:18:35.820 ,3,1,0.,24.0,0.,24.0,0.,24.0,0.,24.0
1986-01-24 03:18:59.820 ,3,0,0.,24.0,0.,24.0,0.,24.0,0.,24.0
1986-01-24 03:19:23.820 ,4,1,0.,24.0,1.,24.0,0.,24.0,0.,24.0
1986-01-24 03:19:47.820 ,4,0,0.,24.0,0.,24.0,0.,24.0,0.,24.0
1986-01-24 03:20:11.820 ,5,1,0.,24.0,0.,24.0,0.,24.0,0.,24.0
1986-01-24 03:20:35.820 ,5,0,1.,24.0,0.,24.0,0.,24.0,0.,24.0
1986-01-24 03:20:59.820 ,6,1,0.,24.0,0.,24.0,0.,24.0,0.,24.0
1986-01-24 03:21:23.820 ,6,0,0.,24.0,0.,24.0,0.,24.0,0.,24.0
1986-01-24 03:21:47.820 ,7,1,6.,24.0,0.,24.0,0.,24.0,0.,24.0
1986-01-24 03:22:11.820 ,7,0,32.,24.0,0.,24.0,0.,24.0,0.,24.0
1986-01-24 03:22:35.820 ,7,1,30.,24.0,0.,24.0,0.,24.0,0.,24.0
1986-01-24 03:22:59.820 ,7,0,18.,24.0,0.,24.0,0.,24.0,0.,24.0
1986-01-24 03:23:23.820 ,6,1,25.,24.0,0.,24.0,0.,24.0,0.,24.0
1986-01-24 03:23:47.820 ,6,0,0.,24.0,0.,24.0,0.,24.0,0.,24.0
1986-01-24 03:24:11.820 ,5,1,0.,24.0,0.,24.0,0.,24.0,0.,24.0
1986-01-24 03:24:35.820 ,5,0,0.,24.0,0.,24.0,0.,24.0,0.,24.0
1986-01-24 03:24:59.820 ,4,1,0.,24.0,0.,24.0,0.,24.0,0.,24.0
1986-01-24 03:25:23.820 ,4,0,0.,24.0,0.,24.0,0.,24.0,0.,24.0
1986-01-24 03:25:47.820 ,3,1,0.,24.0,0.,24.0,0.,24.0,0.,24.0
1986-01-24 03:26:11.820 ,3,0,0.,24.0,0.,24.0,0.,24.0,0.,24.0
1986-01-24 03:26:35.820 ,2,1,0.,24.0,0.,24.0,0.,24.0,0.,24.0
1986-01-24 03:26:59.820 ,2,0,0.,24.0,0.,24.0,0.,24.0,0.,24.0
1986-01-24 03:27:23.820 ,1,1,0.,24.0,0.,24.0,0.,24.0,0.,24.0
1986-01-24 03:27:47.820 ,1,0,0.,24.0,0.,24.0,0.,24.0,0.,24.0
1986-01-24 03:28:11.820 ,0,1,0.,24.0,0.,24.0,0.,24.0,0.,24.0
1986-01-24 03:28:35.820 ,0,0,0.,24.0,0.,24.0,0.,24.0,0.,24.0
1986-01-24 03:28:59.820 ,0,1,0.,24.0,0.,24.0,0.,24.0,0.,24.0
1986-01-24 03:29:23.820 ,0,0,0.,24.0,1.,24.0,0.,24.0,0.,24.0
1986-01-24 03:29:47.820 ,1,1,0.,24.0,0.,24.0,0.,24.0,0.,24.0
1986-01-24 03:30:11.820 ,1,0,0.,24.0,0.,24.0,0.,24.0,0.,24.0
1986-01-24 03:30:35.820 ,2,1,0.,24.0,0.,24.0,0.,24.0,0.,24.0
1986-01-24 03:30:59.820 ,2,0,0.,24.0,0.,24.0,0.,24.0,0.,24.0
1986-01-24 03:31:23.820 ,3,1,0.,24.0,0.,24.0,0.,24.0,0.,24.0
1986-01-24 03:31:47.820 ,3,0,1.,24.0,0.,24.0,0.,24.0,0.,24.0
1986-01-24 03:32:11.820 ,4,1,0.,24.0,1.,24.0,0.,24.0,0.,24.0
1986-01-24 03:32:35.820 ,4,0,0.,24.0,0.,24.0,0.,24.0,0.,24.0
1986-01-24 03:32:59.820 ,5,1,0.,24.0,0.,24.0,0.,24.0,0.,24.0
1986-01-24 03:33:23.820 ,5,0,1.,24.0,0.,24.0,0.,24.0,0.,24.0
1986-01-24 03:33:47.820 ,6,1,0.,24.0,0.,24.0,0.,24.0,0.,24.0
1986-01-24 03:34:11.820 ,6,0,0.,24.0,0.,24.0,0.,24.0,0.,24.0
1986-01-24 03:34:35.820 ,7,1,8.,24.0,0.,24.0,0.,24.0,0.,24.0
1986-01-24 03:34:59.820 ,7,0,29.,24.0,1.,24.0,0.,24.0,0.,24.0
1986-01-24 03:35:23.820 ,7,1,43.,24.0,0.,24.0,0.,24.0,0.,24.0
1986-01-24 03:35:47.820 ,7,0,29.,24.0,0.,24.0,0.,24.0,0.,24.0
1986-01-24 03:36:11.820 ,6,1,18.,24.0,0.,24.0,0.,24.0,0.,24.0
1986-01-24 03:36:35.820 ,6,0,0.,24.0,0.,24.0,0.,24.0,0.,24.0
1986-01-24 03:36:59.820 ,5,1,0.,24.0,0.,24.0,0.,24.0,0.,24.0
1986-01-24 03:37:23.820 ,5,0,0.,24.0,0.,24.0,0.,24.0,0.,24.0
1986-01-24 03:37:47.820 ,4,1,0.,24.0,0.,24.0,0.,24.0,0.,24.0
1986-01-24 03:38:11.820 ,4,0,0.,24.0,0.,24.0,0.,24.0,0.,24.0
1986-01-24 03:38:35.820 ,3,1,0.,24.0,0.,24.0,0.,24.0,0.,24.0
1986-01-24 03:38:59.820 ,3,0,0.,24.0,0.,24.0,0.,24.0,0.,24.0
1986-01-24 03:39:23.820 ,2,1,0.,24.0,0.,24.0,0.,24.0,0.,24.0
1986-01-24 03:39:47.820 ,2,0,0.,24.0,0.,24.0,0.,24.0,0.,24.0
1986-01-24 03:40:11.820 ,1,1,0.,24.0,0.,24.0,0.,24.0,0.,24.0
1986-01-24 03:40:35.820 ,1,0,0.,24.0,0.,24.0,0.,24.0,0.,24.0
1986-01-24 03:40:59.820 ,0,1,0.,24.0,0.,24.0,0.,24.0,0.,24.0
1986-01-24 03:41:23.820 ,0,0,0.,24.0,0.,24.0,0.,24.0,0.,24.0
1986-01-24 03:41:47.820 ,0,1,0.,24.0,0.,24.0,0.,24.0,0.,24.0
1986-01-24 03:42:11.820 ,0,0,0.,24.0,0.,24.0,0.,24.0,0.,24.0
1986-01-24 03:42:35.820 ,1,1,0.,24.0,0.,24.0,0.,24.0,0.,24.0
1986-01-24 03:42:59.820 ,1,0,0.,24.0,0.,24.0,0.,24.0,0.,24.0
1986-01-24 03:43:23.820 ,2,1,0.,24.0,0.,24.0,0.,24.0,0.,24.0
1986-01-24 03:43:47.820 ,2,0,0.,24.0,0.,24.0,0.,24.0,0.,24.0
1986-01-24 03:44:11.820 ,3,1,0.,24.0,0.,24.0,0.,24.0,0.,24.0
1986-01-24 03:44:35.820 ,3,0,0.,24.0,0.,24.0,0.,24.0,0.,24.0
1986-01-24 03:44:59.820 ,4,1,0.,24.0,0.,24.0,0.,24.0,0.,24.0
1986-01-24 03:45:23.820 ,4,0,0.,24.0,0.,24.0,0.,24.0,0.,24.0
1986-01-24 03:45:47.820 ,5,1,0.,24.0,0.,24.0,0.,24.0,0.,24.0
1986-01-24 03:46:11.820 ,5,0,0.,24.0,0.,24.0,0.,24.0,0.,24.0
1986-01-24 03:46:35.820 ,6,1,0.,24.0,0.,24.0,0.,24.0,0.,24.0
1986-01-24 03:46:59.820 ,6,0,0.,24.0,0.,24.0,0.,24.0,0.,24.0
1986-01-24 03:47:23.820 ,7,1,3.,24.0,0.,24.0,0.,24.0,0.,24.0
1986-01-24 03:47:47.820 ,7,0,29.,24.0,0.,24.0,0.,24.0,0.,24.0
1986-01-24 03:48:11.820 ,7,1,23.,24.0,0.,24.0,0.,24.0,0.,24.0
1986-01-24 03:48:35.820 ,7,0,37.,24.0,0.,24.0,0.,24.0,0.,24.0
1986-01-24 03:48:59.820 ,6,1,31.,24.0,0.,24.0,0.,24.0,0.,24.0
1986-01-24 03:49:23.820 ,6,0,0.,24.0,0.,24.0,0.,24.0,0.,24.0
1986-01-24 03:49:47.820 ,5,1,0.,24.0,0.,24.0,0.,24.0,0.,24.0
1986-01-24 03:50:11.820 ,5,0,0.,24.0,0.,24.0,0.,24.0,0.,24.0
1986-01-24 03:50:35.820 ,4,1,0.,24.0,0.,24.0,0.,24.0,0.,24.0
1986-01-24 03:50:59.820 ,4,0,0.,24.0,0.,24.0,0.,24.0,0.,24.0
1986-01-24 03:51:23.820 ,3,1,0.,24.0,0.,24.0,0.,24.0,0.,24.0
1986-01-24 03:51:47.820 ,3,0,0.,24.0,0.,24.0,0.,24.0,0.,24.0
1986-01-24 03:52:11.820 ,2,1,0.,24.0,0.,24.0,0.,24.0,0.,24.0
1986-01-24 03:52:59.820 ,1,1,0.,24.0,0.,24.0,0.,24.0,0.,24.0
1986-01-24 03:53:23.820 ,1,0,0.,24.0,0.,24.0,0.,24.0,0.,24.0
1986-01-24 03:53:47.820 ,0,1,0.,24.0,0.,24.0,0.,24.0,0.,24.0
1986-01-24 03:54:11.820 ,0,0,0.,24.0,0.,24.0,0.,24.0,0.,24.0
1986-01-24 03:54:35.820 ,0,1,0.,24.0,0.,24.0,0.,24.0,0.,24.0
1986-01-24 03:54:59.820 ,0,0,1.,24.0,0.,24.0,0.,24.0,0.,24.0
1986-01-24 03:55:23.820 ,1,1,1.,24.0,0.,24.0,0.,24.0,0.,24.0
1986-01-24 03:55:47.820 ,1,0,0.,24.0,0.,24.0,0.,24.0,0.,24.0
1986-01-24 03:56:11.820 ,2,1,0.,24.0,0.,24.0,0.,24.0,0.,24.0
1986-01-24 03:56:35.820 ,2,0,0.,24.0,0.,24.0,0.,24.0,0.,24.0
1986-01-24 03:56:59.820 ,3,1,0.,24.0,1.,24.0,0.,24.0,0.,24.0
1986-01-24 03:57:23.820 ,3,0,0.,24.0,0.,24.0,0.,24.0,0.,24.0
1986-01-24 03:57:47.820 ,4,1,0.,24.0,0.,24.0,0.,24.0,0.,24.0
1986-01-24 03:58:11.820 ,4,0,0.,24.0,0.,24.0,0.,24.0,0.,24.0
1986-01-24 03:58:35.820 ,5,1,0.,24.0,0.,24.0,0.,24.0,0.,24.0
1986-01-24 03:58:59.820 ,5,0,0.,24.0,0.,24.0,0.,24.0,0.,24.0
1986-01-24 03:59:23.820 ,6,1,0.,24.0,0.,24.0,0.,24.0,0.,24.0
1986-01-24 03:59:47.820 ,6,0,0.,24.0,0.,24.0,0.,24.0,0.,24.0
1986-01-24 04:00:11.820 ,7,1,10.,24.0,0.,24.0,0.,24.0,0.,24.0
1986-01-24 04:00:35.820 ,7,0,24.,24.0,0.,24.0,0.,24.0,0.,24.0
1986-01-24 04:00:59.820 ,7,1,30.,24.0,0.,24.0,0.,24.0,0.,24.0
1986-01-24 04:01:23.820 ,7,0,24.,24.0,0.,24.0,0.,24.0,0.,24.0
1986-01-24 04:01:47.820 ,6,1,33.,24.0,0.,24.0,0.,24.0,0.,24.0
1986-01-24 04:02:11.820 ,6,0,0.,24.0,0.,24.0,0.,24.0,0.,24.0
1986-01-24 04:02:35.820 ,5,1,0.,24.0,0.,24.0,0.,24.0,0.,24.0
1986-01-24 04:02:59.820 ,5,0,0.,24.0,0.,24.0,0.,24.0,0.,24.0
1986-01-24 04:03:23.820 ,4,1,0.,24.0,0.,24.0,0.,24.0,0.,24.0
1986-01-24 04:03:47.820 ,4,0,0.,24.0,0.,24.0,0.,24.0,0.,24.0
1986-01-24 04:04:11.820 ,3,1,0.,24.0,0.,24.0,0.,24.0,0.,24.0
1986-01-24 04:04:35.820 ,3,0,0.,24.0,0.,24.0,0.,24.0,0.,24.0
1986-01-24 04:04:59.820 ,2,1,0.,24.0,0.,24.0,0.,24.0,0.,24.0
1986-01-24 04:05:23.820 ,2,0,0.,24.0,0.,24.0,0.,24.0,0.,24.0
1986-01-24 04:05:47.820 ,1,1,0.,24.0,0.,24.0,0.,24.0,0.,24.0
1986-01-24 04:06:11.820 ,1,0,0.,24.0,0.,24.0,0.,24.0,0.,24.0
1986-01-24 04:06:35.820 ,0,1,0.,24.0,0.,24.0,0.,24.0,0.,24.0
1986-01-24 04:06:59.820 ,0,0,1.,24.0,0.,24.0,0.,24.0,0.,24.0
1986-01-24 04:07:23.820 ,0,1,0.,24.0,0.,24.0,0.,24.0,0.,24.0
1986-01-24 04:07:47.820 ,0,0,0.,24.0,0.,24.0,0.,24.0,0.,24.0
1986-01-24 04:08:11.820 ,1,1,0.,24.0,0.,24.0,0.,24.0,0.,24.0
1986-01-24 04:08:35.820 ,1,0,0.,24.0,0.,24.0,0.,24.0,0.,24.0
1986-01-24 04:08:59.820 ,2,1,0.,24.0,1.,24.0,0.,24.0,0.,24.0
1986-01-24 04:09:23.820 ,2,0,0.,24.0,0.,24.0,0.,24.0,0.,24.0
1986-01-24 04:09:47.820 ,3,1,0.,24.0,0.,24.0,0.,24.0,0.,24.0
1986-01-24 04:10:11.820 ,3,0,0.,24.0,0.,24.0,0.,24.0,0.,24.0
1986-01-24 04:10:35.820 ,4,1,0.,24.0,0.,24.0,0.,24.0,0.,24.0
1986-01-24 04:10:59.820 ,4,0,0.,24.0,0.,24.0,0.,24.0,0.,24.0
1986-01-24 04:11:23.820 ,5,1,0.,24.0,0.,24.0,0.,24.0,0.,24.0
1986-01-24 04:11:47.820 ,5,0,0.,24.0,0.,24.0,0.,24.0,0.,24.0
1986-01-24 04:12:11.820 ,6,1,0.,24.0,0.,24.0,0.,24.0,0.,24.0
1986-01-24 04:12:35.820 ,6,0,0.,24.0,0.,24.0,0.,24.0,0.,24.0
1986-01-24 04:12:59.820 ,7,1,6.,24.0,0.,24.0,0.,24.0,0.,24.0
1986-01-24 04:13:23.820 ,7,0,29.,24.0,0.,24.0,0.,24.0,0.,24.0
1986-01-24 04:13:47.820 ,7,1,26.,24.0,0.,24.0,0.,24.0,0.,24.0
1986-01-24 04:14:11.820 ,7,0,33.,24.0,0.,24.0,0.,24.0,0.,24.0
1986-01-24 04:14:35.820 ,6,1,18.,24.0,0.,24.0,0.,24.0,0.,24.0
1986-01-24 04:14:59.820 ,6,0,0.,24.0,0.,24.0,0.,24.0,0.,24.0
1986-01-24 04:15:23.820 ,5,1,0.,24.0,0.,24.0,0.,24.0,0.,24.0
1986-01-24 04:15:47.820 ,5,0,0.,24.0,0.,24.0,0.,24.0,0.,24.0
1986-01-24 04:16:11.820 ,4,1,0.,24.0,0.,24.0,0.,24.0,0.,24.0
1986-01-24 04:16:35.820 ,4,0,0.,24.0,0.,24.0,0.,24.0,0.,24.0
1986-01-24 04:16:59.820 ,3,1,0.,24.0,0.,24.0,0.,24.0,0.,24.0
1986-01-24 04:17:23.820 ,3,0,1.,24.0,0.,24.0,0.,24.0,0.,24.0
1986-01-24 04:17:47.820 ,2,1,0.,24.0,0.,24.0,0.,24.0,0.,24.0
1986-01-24 04:18:11.820 ,2,0,0.,24.0,0.,24.0,0.,24.0,0.,24.0
1986-01-24 04:18:35.820 ,1,1,0.,24.0,0.,24.0,0.,24.0,0.,24.0
1986-01-24 04:18:59.820 ,0,0,1.,24.0,0.,24.0,0.,24.0,0.,24.0
1986-01-24 04:19:59.220 ,0,0,0.,24.0,0.,24.0,0.,24.0,0.,24.0
1986-01-24 04:20:11.820 ,7,0,4.,24.0,0.,24.0,0.,24.0,0.,24.0
1986-01-24 04:20:35.820 ,7,0,28.,24.0,0.,24.0,0.,24.0,0.,24.0
1986-01-24 04:20:59.820 ,0,0,18.,24.0,0.,24.0,0.,24.0,0.,24.0
1986-01-24 04:21:23.820 ,1,1,0.,24.0,0.,24.0,0.,24.0,0.,24.0
1986-01-24 04:21:47.820 ,0,0,0.,24.0,0.,24.0,0.,24.0,0.,24.0
1986-01-24 04:22:11.820 ,0,0,0.,24.0,0.,24.0,0.,24.0,0.,24.0
1986-01-24 04:22:35.820 ,6,0,2.,24.0,0.,24.0,0.,24.0,0.,24.0
1986-01-24 04:22:59.820 ,6,0,0.,24.0,0.,24.0,0.,24.0,0.,24.0
1986-01-24 04:23:23.820 ,6,0,0.,24.0,0.,24.0,0.,24.0,0.,24.0
1986-01-24 04:23:47.820 ,6,0,0.,24.0,0.,24.0,0.,24.0,0.,24.0
1986-01-24 04:24:11.820 ,6,0,0.,24.0,0.,24.0,0.,24.0,0.,24.0
1986-01-24 04:24:35.820 ,6,0,1.,24.0,0.,24.0,0.,24.0,0.,24.0
1986-01-24 04:24:59.820 ,6,0,0.,24.0,0.,24.0,0.,24.0,0.,24.0
1986-01-24 04:25:23.820 ,6,0,0.,24.0,0.,24.0,0.,24.0,0.,24.0
1986-01-24 04:25:47.820 ,6,0,0.,24.0,0.,24.0,0.,24.0,0.,24.0
1986-01-24 04:26:11.820 ,6,0,0.,24.0,0.,24.0,0.,24.0,0.,24.0
1986-01-24 04:26:35.820 ,6,0,0.,24.0,0.,24.0,0.,24.0,0.,24.0
1986-01-24 04:26:59.820 ,6,0,0.,24.0,0.,24.0,0.,24.0,0.,24.0
1986-01-24 04:27:23.820 ,6,0,0.,24.0,0.,24.0,0.,24.0,0.,24.0
1986-01-24 04:27:47.820 ,6,0,0.,24.0,0.,24.0,0.,24.0,0.,24.0
1986-01-24 04:28:11.820 ,6,0,0.,24.0,0.,24.0,0.,24.0,0.,24.0
1986-01-24 04:28:35.820 ,6,0,0.,24.0,0.,24.0,0.,24.0,0.,24.0
1986-01-24 04:28:59.820 ,6,0,0.,24.0,0.,24.0,0.,24.0,0.,24.0
1986-01-24 04:29:23.820 ,6,0,0.,24.0,0.,24.0,0.,24.0,0.,24.0
1986-01-24 04:29:47.820 ,6,0,0.,24.0,0.,24.0,0.,24.0,0.,24.0
1986-01-24 04:30:11.820 ,6,0,0.,24.0,0.,24.0,0.,24.0,0.,24.0
1986-01-24 04:30:35.820 ,6,0,0.,24.0,0.,24.0,0.,24.0,0.,24.0
1986-01-24 04:30:59.820 ,6,0,0.,24.0,0.,24.0,0.,24.0,0.,24.0
1986-01-24 04:31:23.820 ,6,0,0.,24.0,0.,24.0,0.,24.0,0.,24.0
1986-01-24 04:31:47.820 ,6,0,0.,24.0,0.,24.0,0.,24.0,0.,24.0
1986-01-24 04:32:11.820 ,6,0,0.,24.0,0.,24.0,0.,24.0,0.,24.0
1986-01-24 04:32:35.820 ,6,0,0.,24.0,0.,24.0,0.,24.0,0.,24.0
1986-01-24 04:32:59.820 ,7,1,21.,24.0,0.,24.0,0.,24.0,0.,24.0
1986-01-24 04:33:23.820 ,3,1,0.,24.0,0.,24.0,0.,24.0,0.,24.0
1986-01-24 04:33:47.820 ,0,1,0.,24.0,0.,24.0,0.,24.0,0.,24.0
1986-01-24 04:34:11.820 ,4,1,0.,24.0,0.,24.0,0.,24.0,0.,24.0
1986-01-24 04:34:35.810 ,6,0,0.,24.0,1.,24.0,0.,24.0,0.,24.0
1986-01-24 04:34:59.810 ,6,0,0.,24.0,0.,24.0,0.,24.0,0.,24.0
1986-01-24 04:35:23.810 ,6,0,0.,24.0,0.,24.0,0.,24.0,0.,24.0
1986-01-24 04:35:47.810 ,6,0,0.,24.0,0.,24.0,0.,24.0,0.,24.0
1986-01-24 04:36:11.810 ,6,0,0.,24.0,0.,24.0,0.,24.0,0.,24.0
1986-01-24 04:36:35.810 ,6,0,0.,24.0,0.,24.0,0.,24.0,0.,24.0
1986-01-24 04:36:59.810 ,6,0,1.,24.0,0.,24.0,0.,24.0,0.,24.0
1986-01-24 04:37:23.810 ,6,0,0.,24.0,0.,24.0,0.,24.0,0.,24.0
1986-01-24 04:38:17.810 ,6,0,0.,24.0,0.,24.0,0.,24.0,0.,24.0
1986-01-24 04:38:35.810 ,6,0,0.,24.0,0.,24.0,0.,24.0,0.,24.0
1986-01-24 04:38:59.810 ,6,0,0.,24.0,0.,24.0,0.,24.0,0.,24.0
1986-01-24 04:39:23.810 ,6,0,0.,24.0,0.,24.0,0.,24.0,0.,24.0
1986-01-24 04:39:47.810 ,6,0,0.,24.0,0.,24.0,0.,24.0,0.,24.0
1986-01-24 04:40:11.810 ,6,0,0.,24.0,0.,24.0,0.,24.0,0.,24.0
1986-01-24 04:40:35.810 ,6,0,0.,24.0,0.,24.0,0.,24.0,0.,24.0
1986-01-24 04:40:59.810 ,6,0,0.,24.0,0.,24.0,0.,24.0,0.,24.0
1986-01-24 04:41:23.810 ,6,0,0.,24.0,1.,24.0,0.,24.0,0.,24.0
1986-01-24 04:41:47.810 ,6,0,0.,24.0,0.,24.0,0.,24.0,0.,24.0
1986-01-24 04:42:11.810 ,6,0,0.,24.0,0.,24.0,0.,24.0,0.,24.0
1986-01-24 04:42:35.810 ,6,0,0.,24.0,0.,24.0,0.,24.0,0.,24.0
1986-01-24 04:42:59.810 ,6,0,0.,24.0,0.,24.0,0.,24.0,0.,24.0
1986-01-24 04:43:23.810 ,6,0,1.,24.0,0.,24.0,0.,24.0,0.,24.0
1986-01-24 04:43:47.810 ,6,0,0.,24.0,0.,24.0,0.,24.0,0.,24.0
1986-01-24 04:44:11.810 ,6,0,0.,24.0,0.,24.0,0.,24.0,0.,24.0
1986-01-24 04:44:35.810 ,6,0,0.,24.0,0.,24.0,0.,24.0,0.,24.0
1986-01-24 04:44:59.810 ,7,1,16.,24.0,0.,24.0,0.,24.0,0.,24.0
1986-01-24 04:45:23.810 ,3,1,0.,24.0,0.,24.0,0.,24.0,0.,24.0
1986-01-24 04:45:47.810 ,0,1,0.,24.0,1.,24.0,0.,24.0,0.,24.0
1986-01-24 04:46:11.810 ,4,1,0.,24.0,0.,24.0,0.,24.0,0.,24.0
1986-01-24 04:46:35.810 ,6,0,0.,24.0,0.,24.0,0.,24.0,0.,24.0
1986-01-24 04:46:59.810 ,6,0,0.,24.0,0.,24.0,0.,24.0,0.,24.0
1986-01-24 04:47:23.810 ,6,0,0.,24.0,0.,24.0,0.,24.0,0.,24.0
1986-01-24 04:47:47.810 ,6,0,0.,24.0,0.,24.0,0.,24.0,0.,24.0
1986-01-24 04:48:11.810 ,6,0,0.,24.0,0.,24.0,0.,24.0,0.,24.0
1986-01-24 04:48:35.810 ,6,0,0.,24.0,0.,24.0,0.,24.0,0.,24.0
1986-01-24 04:48:59.810 ,6,0,0.,24.0,0.,24.0,0.,24.0,0.,24.0
1986-01-24 04:49:23.810 ,6,0,0.,24.0,0.,24.0,0.,24.0,0.,24.0
1986-01-24 04:49:47.810 ,6,0,0.,24.0,0.,24.0,0.,24.0,0.,24.0
1986-01-24 04:50:11.810 ,6,0,0.,24.0,0.,24.0,0.,24.0,0.,24.0
1986-01-24 04:50:35.810 ,6,0,0.,24.0,0.,24.0,0.,24.0,0.,24.0
1986-01-24 04:50:59.810 ,6,0,0.,24.0,0.,24.0,0.,24.0,0.,24.0
1986-01-24 04:51:23.810 ,6,0,0.,24.0,0.,24.0,0.,24.0,0.,24.0
1986-01-24 04:51:47.810 ,6,0,0.,24.0,0.,24.0,0.,24.0,0.,24.0
1986-01-24 04:52:11.810 ,6,0,0.,24.0,0.,24.0,0.,24.0,0.,24.0
1986-01-24 04:52:35.810 ,6,0,0.,24.0,0.,24.0,0.,24.0,0.,24.0
1986-01-24 04:52:59.810 ,6,0,0.,24.0,0.,24.0,0.,24.0,0.,24.0
1986-01-24 04:53:23.810 ,6,0,0.,24.0,0.,24.0,0.,24.0,0.,24.0
1986-01-24 04:53:47.810 ,6,0,0.,24.0,0.,24.0,0.,24.0,0.,24.0
1986-01-24 04:54:11.810 ,6,0,0.,24.0,0.,24.0,0.,24.0,0.,24.0
1986-01-24 04:54:35.810 ,6,0,0.,24.0,0.,24.0,0.,24.0,0.,24.0
1986-01-24 04:54:59.810 ,6,0,0.,24.0,0.,24.0,0.,24.0,0.,24.0
1986-01-24 04:55:23.810 ,6,0,1.,24.0,0.,24.0,0.,24.0,0.,24.0
1986-01-24 04:55:47.810 ,6,0,0.,24.0,0.,24.0,0.,24.0,0.,24.0
1986-01-24 04:56:11.810 ,6,0,0.,24.0,0.,24.0,0.,24.0,0.,24.0
1986-01-24 04:56:35.810 ,6,0,0.,24.0,0.,24.0,0.,24.0,0.,24.0
1986-01-24 04:56:59.810 ,7,1,17.,24.0,0.,24.0,0.,24.0,0.,24.0
1986-01-24 04:57:23.810 ,3,1,0.,24.0,0.,24.0,0.,24.0,0.,24.0
1986-01-24 04:57:47.810 ,0,1,0.,24.0,0.,24.0,0.,24.0,0.,24.0
1986-01-24 04:58:11.810 ,4,1,0.,24.0,0.,24.0,0.,24.0,0.,24.0
1986-01-24 04:58:35.810 ,6,0,0.,24.0,0.,24.0,0.,24.0,0.,24.0
1986-01-24 04:58:59.810 ,6,0,0.,24.0,0.,24.0,0.,24.0,0.,24.0
1986-01-24 04:59:23.810 ,6,0,0.,24.0,0.,24.0,0.,24.0,0.,24.0
1986-01-24 04:59:47.810 ,6,0,0.,24.0,0.,24.0,0.,24.0,0.,24.0
1986-01-24 05:00:11.810 ,6,0,0.,24.0,0.,24.0,0.,24.0,0.,24.0
1986-01-24 05:00:35.810 ,6,0,0.,24.0,0.,24.0,0.,24.0,0.,24.0
1986-01-24 05:00:59.810 ,6,0,0.,24.0,0.,24.0,0.,24.0,0.,24.0
1986-01-24 05:01:23.810 ,6,0,0.,24.0,0.,24.0,0.,24.0,0.,24.0
1986-01-24 05:01:47.810 ,6,0,0.,24.0,0.,24.0,0.,24.0,0.,24.0
1986-01-24 05:02:11.810 ,6,0,0.,24.0,0.,24.0,0.,24.0,0.,24.0
1986-01-24 05:02:35.810 ,6,0,0.,24.0,0.,24.0,0.,24.0,0.,24.0
1986-01-24 05:02:59.810 ,6,0,0.,24.0,0.,24.0,0.,24.0,0.,24.0
1986-01-24 05:03:23.810 ,6,0,0.,24.0,0.,24.0,0.,24.0,0.,24.0
1986-01-24 05:03:47.810 ,6,0,0.,24.0,0.,24.0,0.,24.0,0.,24.0
1986-01-24 05:04:11.810 ,6,0,0.,24.0,0.,24.0,0.,24.0,0.,24.0
1986-01-24 05:04:35.810 ,6,0,0.,24.0,0.,24.0,0.,24.0,0.,24.0
1986-01-24 05:04:59.810 ,6,0,0.,24.0,0.,24.0,0.,24.0,0.,24.0
1986-01-24 05:05:23.810 ,6,0,0.,24.0,0.,24.0,0.,24.0,0.,24.0
1986-01-24 05:05:47.810 ,6,0,0.,24.0,0.,24.0,0.,24.0,0.,24.0
1986-01-24 05:06:11.810 ,6,0,0.,24.0,0.,24.0,0.,24.0,0.,24.0
1986-01-24 05:06:35.810 ,6,0,0.,24.0,0.,24.0,0.,24.0,0.,24.0
1986-01-24 05:06:59.810 ,6,0,0.,24.0,0.,24.0,0.,24.0,0.,24.0
1986-01-24 05:07:23.810 ,6,0,0.,24.0,0.,24.0,0.,24.0,0.,24.0
1986-01-24 05:07:47.810 ,6,0,1.,24.0,0.,24.0,0.,24.0,0.,24.0
1986-01-24 05:08:11.810 ,6,0,0.,24.0,0.,24.0,0.,24.0,0.,24.0
1986-01-24 05:08:35.810 ,6,0,0.,24.0,0.,24.0,0.,24.0,0.,24.0
1986-01-24 05:08:59.810 ,7,1,14.,24.0,0.,24.0,0.,24.0,0.,24.0
1986-01-24 05:09:23.810 ,3,1,1.,24.0,0.,24.0,0.,24.0,0.,24.0
1986-01-24 05:09:47.810 ,0,1,0.,24.0,0.,24.0,0.,24.0,0.,24.0
1986-01-24 05:10:11.810 ,4,1,0.,24.0,0.,24.0,0.,24.0,0.,24.0
1986-01-24 05:10:35.810 ,6,0,0.,24.0,0.,24.0,0.,24.0,0.,24.0
1986-01-24 05:10:59.810 ,6,0,0.,24.0,0.,24.0,0.,24.0,0.,24.0
1986-01-24 05:11:23.810 ,6,0,0.,24.0,0.,24.0,0.,24.0,0.,24.0
1986-01-24 05:11:47.810 ,6,0,0.,24.0,0.,24.0,0.,24.0,0.,24.0
1986-01-24 05:12:11.810 ,6,0,0.,24.0,0.,24.0,0.,24.0,0.,24.0
1986-01-24 05:12:35.810 ,6,0,0.,24.0,0.,24.0,0.,24.0,0.,24.0
1986-01-24 05:12:59.810 ,6,0,0.,24.0,0.,24.0,0.,24.0,0.,24.0
1986-01-24 05:13:23.810 ,6,0,0.,24.0,0.,24.0,0.,24.0,0.,24.0
1986-01-24 05:13:47.810 ,6,0,0.,24.0,0.,24.0,0.,24.0,0.,24.0
1986-01-24 05:14:11.810 ,6,0,0.,24.0,0.,24.0,0.,24.0,0.,24.0
1986-01-24 05:14:35.810 ,6,0,0.,24.0,0.,24.0,0.,24.0,0.,24.0
1986-01-24 05:14:59.810 ,6,0,0.,24.0,0.,24.0,0.,24.0,0.,24.0
1986-01-24 05:15:23.810 ,6,0,0.,24.0,0.,24.0,0.,24.0,0.,24.0
1986-01-24 05:15:47.810 ,6,0,0.,24.0,0.,24.0,0.,24.0,0.,24.0
1986-01-24 05:16:11.810 ,6,0,0.,24.0,0.,24.0,0.,24.0,0.,24.0
1986-01-24 05:16:35.810 ,6,0,0.,24.0,0.,24.0,0.,24.0,0.,24.0
1986-01-24 05:16:59.810 ,6,0,0.,24.0,0.,24.0,0.,24.0,0.,24.0
1986-01-24 05:17:23.810 ,6,0,0.,24.0,0.,24.0,0.,24.0,0.,24.0
1986-01-24 05:17:47.810 ,6,0,0.,24.0,0.,24.0,0.,24.0,0.,24.0
1986-01-24 05:18:11.810 ,6,0,0.,24.0,0.,24.0,0.,24.0,0.,24.0
1986-01-24 05:18:35.810 ,6,0,0.,24.0,0.,24.0,0.,24.0,0.,24.0
1986-01-24 05:18:59.810 ,6,0,0.,24.0,0.,24.0,0.,24.0,0.,24.0
1986-01-24 05:19:23.810 ,6,0,1.,24.0,0.,24.0,0.,24.0,0.,24.0
1986-01-24 05:19:47.810 ,6,0,0.,24.0,0.,24.0,0.,24.0,0.,24.0
1986-01-24 05:20:11.810 ,6,0,0.,24.0,0.,24.0,0.,24.0,0.,24.0
1986-01-24 05:20:35.810 ,6,0,0.,24.0,0.,24.0,0.,24.0,0.,24.0
1986-01-24 05:20:59.810 ,7,1,17.,24.0,0.,24.0,0.,24.0,0.,24.0
1986-01-24 05:21:23.810 ,3,1,0.,24.0,0.,24.0,0.,24.0,0.,24.0
1986-01-24 05:21:47.810 ,0,1,0.,24.0,0.,24.0,0.,24.0,0.,24.0
1986-01-24 05:22:11.810 ,4,1,0.,24.0,0.,24.0,0.,24.0,0.,24.0
1986-01-24 05:22:35.810 ,6,0,0.,24.0,0.,24.0,0.,24.0,0.,24.0
1986-01-24 05:22:59.810 ,6,0,0.,24.0,0.,24.0,0.,24.0,0.,24.0
1986-01-24 05:23:23.810 ,6,0,0.,24.0,0.,24.0,0.,24.0,0.,24.0
1986-01-24 05:23:47.810 ,6,0,0.,24.0,0.,24.0,0.,24.0,0.,24.0
1986-01-24 05:24:11.810 ,6,0,0.,24.0,0.,24.0,0.,24.0,0.,24.0
1986-01-24 05:24:35.810 ,6,0,0.,24.0,0.,24.0,0.,24.0,0.,24.0
1986-01-24 05:24:59.810 ,6,0,0.,24.0,0.,24.0,0.,24.0,0.,24.0
1986-01-24 05:25:23.810 ,6,0,0.,24.0,0.,24.0,0.,24.0,0.,24.0
1986-01-24 05:25:47.810 ,6,0,0.,24.0,0.,24.0,0.,24.0,0.,24.0
1986-01-24 05:26:11.810 ,6,0,0.,24.0,0.,24.0,0.,24.0,0.,24.0
1986-01-24 05:26:35.810 ,6,0,0.,24.0,0.,24.0,0.,24.0,0.,24.0
1986-01-24 05:26:59.810 ,6,0,0.,24.0,0.,24.0,0.,24.0,0.,24.0
1986-01-24 05:27:23.810 ,6,0,0.,24.0,0.,24.0,0.,24.0,0.,24.0
1986-01-24 05:27:47.810 ,6,0,0.,24.0,0.,24.0,0.,24.0,0.,24.0
1986-01-24 05:28:11.810 ,6,0,0.,24.0,0.,24.0,0.,24.0,0.,24.0
1986-01-24 05:28:35.810 ,6,0,0.,24.0,0.,24.0,0.,24.0,0.,24.0
1986-01-24 05:28:59.810 ,6,0,0.,24.0,0.,24.0,0.,24.0,0.,24.0
1986-01-24 05:29:23.810 ,6,0,0.,24.0,0.,24.0,0.,24.0,0.,24.0
1986-01-24 05:29:47.810 ,6,0,0.,24.0,0.,24.0,0.,24.0,0.,24.0
1986-01-24 05:30:11.810 ,6,0,0.,24.0,0.,24.0,0.,24.0,0.,24.0
1986-01-24 05:30:35.810 ,6,0,0.,24.0,0.,24.0,0.,24.0,0.,24.0
1986-01-24 05:30:59.810 ,6,0,0.,24.0,0.,24.0,0.,24.0,0.,24.0
1986-01-24 05:31:23.810 ,6,0,0.,24.0,0.,24.0,0.,24.0,0.,24.0
1986-01-24 05:31:47.810 ,6,0,0.,24.0,0.,24.0,0.,24.0,0.,24.0
1986-01-24 05:32:11.810 ,6,0,0.,24.0,0.,24.0,0.,24.0,0.,24.0
1986-01-24 05:32:35.810 ,6,0,0.,24.0,0.,24.0,0.,24.0,0.,24.0
1986-01-24 05:32:59.810 ,7,1,11.,24.0,0.,24.0,0.,24.0,0.,24.0
1986-01-24 05:33:23.810 ,3,1,1.,24.0,0.,24.0,0.,24.0,0.,24.0
1986-01-24 05:33:47.810 ,0,1,0.,24.0,0.,24.0,0.,24.0,0.,24.0
1986-01-24 05:34:11.810 ,4,1,0.,24.0,0.,24.0,0.,24.0,0.,24.0
1986-01-24 05:34:35.810 ,6,0,0.,24.0,0.,24.0,0.,24.0,0.,24.0
1986-01-24 05:34:59.810 ,6,0,0.,24.0,0.,24.0,0.,24.0,0.,24.0
1986-01-24 05:35:23.810 ,6,0,0.,24.0,0.,24.0,0.,24.0,0.,24.0